FW6146 Weather Reports


Display with metric or nautical units.
time (UTC)temp
F
wind
direction
speed
MPH
gust
MPH
rain 1hr
in
rain 24hr
in
rain mn
in
humidity
%
barometer
mb
20260507145936 58 303 1.0 2.0 0.00 0.32 0.29 62 1006.9
20260507144920 56 350 1.0 1.0 0.00 0.32 0.29 67 1007.0
20260507143958 56 319 1.0 2.0 0.00 0.32 0.29 66 1006.8
20260507142924 56 45 1.0 3.0 0.00 0.32 0.29 71 1007.2
20260507141939 55 322 1.0 2.0 0.00 0.32 0.29 68 1007.2
20260507140924 54 319 1.0 2.0 0.01 0.32 0.29 78 1007.2
20260507135942 53 348 1.0 2.0 0.01 0.32 0.29 76 1007.4
20260507134928 52 234 0.0 1.0 0.01 0.32 0.29 80 1007.1
20260507133946 52 304 2.0 2.0 0.01 0.32 0.29 84 1007.4
20260507132930 51 330 0.0 2.0 0.02 0.32 0.29 90 1007.3
20260507132008 51 329 2.0 3.0 0.02 0.32 0.29 94 1007.2
20260507130931 50 301 1.0 2.0 0.02 0.31 0.28 96 1007.4
20260507130009 49 15 0.0 1.0 0.02 0.31 0.28 97 1007.2
20260507125014 50 276 1.0 3.0 0.03 0.31 0.28 97 1007.2
20260507124031 49 0.0 0.0 0.03 0.31 0.28 97 1007.4
20260507122936 49 336 0.0 1.0 0.03 0.30 0.27 97 1007.7
20260507121922 49 0.0 0.0 0.04 0.30 0.27 97 1007.8
20260507120941 49 0.0 0.0 0.03 0.29 0.26 97 1007.3
20260507115926 48 0.0 0.0 0.04 0.29 0.26 97 1007.3
20260507114945 48 0.0 0.0 0.04 0.28 0.25 97 1007.3
20260507113931 48 0.0 0.0 0.04 0.28 0.25 97 1007.3
20260507113010 48 0.0 0.0 0.04 0.27 0.24 97 1007.5
20260507111935 48 0.0 0.0 0.04 0.26 0.23 97 1007.0
20260507110953 48 0.0 0.0 0.04 0.26 0.23 96 1007.1
20260507105939 48 0.0 0.0 0.04 0.25 0.22 96 1006.9
20260507104956 48 0.0 0.0 0.03 0.24 0.21 96 1007.0
20260507104002 48 0.0 0.0 0.04 0.24 0.21 96 1006.9
20260507102927 48 0.0 0.0 0.03 0.23 0.20 96 1007.3
20260507101946 48 0.0 0.0 0.03 0.22 0.19 96 1007.4
20260507100952 48 0.0 0.0 0.03 0.22 0.19 96 1007.2
20260507095951 48 0.0 0.0 0.03 0.21 0.18 96 1007.0
20260507094937 48 0.0 0.0 0.04 0.21 0.18 95 1006.8
20260507093955 48 0.0 0.0 0.04 0.20 0.17 95 1006.8
20260507092942 48 0.0 0.0 0.06 0.20 0.17 95 1006.8
20260507092020 48 0.0 1.0 0.06 0.19 0.16 95 1006.6
20260507090946 48 317 0.0 1.0 0.08 0.19 0.16 95 1006.3
20260507085931 49 314 1.0 3.0 0.08 0.18 0.15 95 1006.4
20260507084949 49 333 0.0 1.0 0.09 0.17 0.14 94 1006.6
20260507083935 49 338 0.0 3.0 0.10 0.16 0.13 94 1006.5
20260507082953 50 0.0 2.0 0.10 0.14 0.11 94 1006.4
20260507081939 50 319 1.0 2.0 0.09 0.13 0.10 93 1006.3
20260507080957 51 0.0 1.0 0.07 0.11 0.08 92 1006.6
20260507075943 52 331 0.0 1.0 0.06 0.10 0.07 91 1006.4
20260507075002 52 0.0 1.0 0.04 0.08 0.05 88 1006.5
20260507073946 54 321 1.0 2.0 0.02 0.06 0.03 83 1006.5
20260507073005 55 343 1.0 2.0 0.00 0.04 0.01 83 1005.6
20260507071951 55 329 0.0 2.0 0.00 0.04 0.01 82 1005.4
20260507070937 55 320 1.0 2.0 0.00 0.04 0.01 83 1005.4
20260507065956 55 347 1.0 2.0 0.00 0.04 0.01 82 1005.2
20260507064940 55 330 1.0 2.0 0.00 0.04 0.01 83 1005.6
20260507063959 56 333 1.0 2.0 0.00 0.04 0.01 85 1005.6
20260507062943 56 320 1.0 1.0 0.00 0.04 0.01 86 1005.7
20260507062002 56 326 0.0 1.0 0.00 0.04 0.01 85 1005.3
20260507060947 56 346 1.0 2.0 0.00 0.04 0.01 86 1005.5
20260507060007 57 43 1.0 2.0 0.00 0.04 0.01 92 1005.8
20260507054951 57 303 1.0 2.0 0.00 0.04 0.01 93 1005.8
20260507053937 57 0.0 0.0 0.00 0.04 0.01 93 1005.9
20260507052955 58 329 0.0 1.0 0.00 0.04 0.01 93 1005.9
20260507051940 58 322 1.0 1.0 0.00 0.04 0.01 94 1005.8
20260507050957 58 0.0 0.0 0.00 0.04 0.01 94 1005.8
20260507045942 58 321 1.0 1.0 0.01 0.04 0.01 95 1005.9
20260507045041 59 312 1.0 2.0 0.01 0.04 0.01 95 1005.8
20260507043946 59 317 1.0 2.0 0.01 0.04 0.01 95 1005.8
20260507043005 59 327 0.0 1.0 0.01 0.04 0.01 95 1005.7
20260507041950 59 310 0.0 1.0 0.01 0.04 0.01 95 1005.7
20260507041027 59 314 0.0 1.0 0.01 0.04 0.01 94 1005.8
20260507035952 59 0.0 2.0 0.00 0.03 0.03 94 1005.9
20260507035031 58 262 3.0 5.0 0.00 0.03 0.03 93 1006.0
20260507033957 58 293 2.0 3.0 0.00 0.03 0.03 94 1006.0
20260507033035 58 301 1.0 2.0 0.00 0.03 0.03 94 1005.9
20260507032020 58 317 1.0 2.0 0.00 0.03 0.03 94 1005.8
20260507030946 58 305 2.0 6.0 0.00 0.03 0.03 94 1005.6
20260507030005 57 288 1.0 2.0 0.00 0.03 0.03 94 1005.6
20260507024950 57 282 1.0 3.0 0.00 0.03 0.03 94 1005.4
20260507024028 57 302 1.0 3.0 0.00 0.03 0.03 94 1005.6
20260507022953 57 304 2.0 3.0 0.00 0.03 0.03 94 1005.6
20260507022011 57 234 1.0 3.0 0.00 0.03 0.03 95 1005.7
20260507021016 57 168 2.0 5.0 0.00 0.03 0.03 95 1005.8
20260507020035 57 307 1.0 3.0 0.00 0.03 0.03 95 1005.6
20260507015000 57 308 1.0 2.0 0.00 0.03 0.03 95 1005.8
20260507014019 57 281 2.0 3.0 0.00 0.03 0.03 95 1005.9
20260507013005 57 309 1.0 3.0 0.00 0.03 0.03 95 1006.2
20260507011949 57 288 1.0 2.0 0.00 0.03 0.03 95 1006.2
20260507011007 57 296 2.0 5.0 0.00 0.03 0.03 95 1006.2
20260507005952 57 296 1.0 3.0 0.00 0.03 0.03 95 1006.2
20260507005010 57 283 1.0 5.0 0.00 0.03 0.03 94 1006.3
20260507003956 56 311 1.0 2.0 0.00 0.03 0.03 94 1006.2
20260507003014 56 295 1.0 3.0 0.00 0.03 0.03 94 1006.0
20260507002020 56 285 3.0 6.0 0.00 0.03 0.03 94 1005.9
20260507001020 56 324 0.0 2.0 0.00 0.03 0.03 94 1006.1
20260507000005 56 274 3.0 3.0 0.00 0.03 0.03 94 1005.9
20260506235023 56 271 2.0 7.0 0.00 0.03 0.03 94 1006.0
20260506234009 56 265 3.0 5.0 0.00 0.03 0.03 94 1005.7
20260506232955 56 259 2.0 7.0 0.00 0.03 0.03 94 1005.7
20260506232013 57 322 1.0 3.0 0.00 0.03 0.03 94 1005.9
20260506230958 57 275 1.0 5.0 0.00 0.03 0.03 94 1006.1
20260506230015 57 307 2.0 3.0 0.00 0.03 0.03 94 1005.9
20260506225000 57 295 2.0 3.0 0.01 0.03 0.03 94 1005.9
20260506224019 57 275 2.0 7.0 0.01 0.03 0.03 95 1005.9
20260506223005 57 307 3.0 6.0 0.01 0.03 0.03 94 1006.0
20260506222024 57 307 3.0 3.0 0.01 0.03 0.03 94 1006.2
20260506221010 58 310 1.0 3.0 0.01 0.03 0.03 93 1006.1
20260506220028 58 283 2.0 7.0 0.02 0.03 0.03 93 1006.3
20260506215014 59 287 2.0 5.0 0.02 0.02 0.02 92 1006.4
20260506214019 59 282 2.0 6.0 0.02 0.02 0.02 92 1006.5
20260506213018 59 295 2.0 5.0 0.02 0.02 0.02 92 1006.5
20260506212024 59 305 3.0 7.0 0.02 0.02 0.02 92 1006.7
20260506211042 59 302 1.0 5.0 0.02 0.02 0.02 92 1006.6
20260506210007 59 305 1.0 2.0 0.01 0.01 0.01 91 1006.6
20260506205026 60 294 2.0 5.0 0.00 0.00 0.00 89 1006.6
20260506204012 60 283 3.0 6.0 0.00 0.00 0.00 89 1006.9
20260506202923 61 291 2.0 7.0 0.00 0.00 0.00 88 1006.7
20260506201929 61 270 1.0 8.0 0.00 0.00 0.00 87 1006.7
20260506200927 62 300 2.0 5.0 0.00 0.00 0.00 86 1006.8
20260506195933 62 271 3.0 3.0 0.00 0.00 0.00 85 1007.0
20260506194932 63 275 4.0 9.0 0.00 0.00 0.00 82 1006.9
20260506193936 63 288 2.0 6.0 0.00 0.00 0.00 80 1007.1
20260506192934 64 303 2.0 3.0 0.00 0.00 0.00 79 1007.0
20260506191917 65 247 2.0 7.0 0.00 0.00 0.00 76 1007.0
20260506190936 65 288 4.0 6.0 0.00 0.00 0.00 73 1007.2
20260506185922 66 282 3.0 10.0 0.00 0.00 0.00 72 1007.1
20260506184927 66 277 3.0 8.0 0.00 0.00 0.00 72 1007.2
20260506183926 66 283 2.0 7.0 0.00 0.00 0.00 71 1007.1
20260506182932 67 274 4.0 8.0 0.00 0.00 0.00 71 1007.2
20260506181950 67 282 4.0 6.0 0.00 0.00 0.00 70 1007.2
20260506180934 67 275 5.0 8.0 0.00 0.00 0.00 71 1007.3
20260506175932 68 283 1.0 6.0 0.00 0.00 0.00 70 1007.6
20260506174937 68 278 4.0 8.0 0.00 0.00 0.00 68 1007.6
20260506173956 69 274 3.0 11.0 0.00 0.00 0.00 66 1007.9
20260506172921 69 274 5.0 10.0 0.00 0.00 0.00 67 1008.0
20260506171940 68 293 3.0 6.0 0.00 0.00 0.00 69 1007.7
20260506170925 68 279 3.0 7.0 0.00 0.00 0.00 69 1007.6
20260506165909 67 290 3.0 8.0 0.00 0.00 0.00 70 1008.0
20260506164926 68 305 3.0 8.0 0.00 0.00 0.00 69 1008.2
20260506163912 68 280 4.0 9.0 0.00 0.00 0.00 69 1008.4
20260506162930 67 238 3.0 7.0 0.00 0.00 0.00 70 1008.4
20260506161915 68 280 5.0 8.0 0.00 0.00 0.00 69 1008.8
20260506160933 69 279 4.0 8.0 0.00 0.00 0.00 68 1008.6
20260506155917 68 302 2.0 6.0 0.00 0.00 0.00 68 1008.8
20260506154936 68 255 4.0 8.0 0.00 0.00 0.00 68 1008.9
20260506153920 69 288 3.0 7.0 0.00 0.00 0.00 68 1009.1
20260506152938 68 270 3.0 6.0 0.00 0.00 0.00 68 1009.3
20260506151923 68 291 3.0 6.0 0.00 0.00 0.00 69 1009.4
20260506151000 69 261 6.0 11.0 0.00 0.00 0.00 68 1009.4